Year,Month,Day,Hour,Minute,Value (Times are PST for temperature in C)
2008,08,22,00,05,11.30
2008,08,22,00,06,11.30
2008,08,22,00,07,11.30
2008,08,22,00,08,11.30
2008,08,22,00,09,11.30
2008,08,22,00,10,11.30
2008,08,22,00,11,11.30
2008,08,22,00,12,11.30
2008,08,22,00,13,11.30
2008,08,22,00,14,11.30
2008,08,22,00,15,11.30
2008,08,22,00,16,11.30
2008,08,22,00,17,11.30
2008,08,22,00,18,11.30
2008,08,22,00,19,11.30
2008,08,22,00,20,11.30
2008,08,22,00,21,11.30
2008,08,22,00,22,11.30
2008,08,22,00,23,11.30
2008,08,22,00,24,11.30
2008,08,22,00,25,11.30
2008,08,22,00,26,11.30
2008,08,22,00,27,11.30
2008,08,22,00,28,11.30
2008,08,22,00,29,11.30
2008,08,22,00,30,11.30
2008,08,22,00,31,11.30
2008,08,22,00,32,11.30
2008,08,22,00,33,11.30
2008,08,22,00,34,11.30
2008,08,22,00,35,11.20
2008,08,22,00,36,11.20
2008,08,22,00,37,11.20
2008,08,22,00,38,11.20
2008,08,22,00,39,11.20
2008,08,22,00,40,11.20
2008,08,22,00,41,11.20
2008,08,22,00,42,11.20
2008,08,22,00,43,11.20
2008,08,22,00,44,11.20
2008,08,22,00,45,11.20
2008,08,22,00,46,11.20
2008,08,22,00,47,11.20
2008,08,22,00,48,11.20
2008,08,22,00,49,11.20
2008,08,22,00,50,11.10
2008,08,22,00,51,11.10
2008,08,22,00,52,11.10
2008,08,22,00,53,11.10
2008,08,22,00,54,11.10
2008,08,22,00,55,11.10
2008,08,22,00,56,11.10
2008,08,22,00,57,11.10
2008,08,22,00,58,11.10
2008,08,22,00,59,11.10
2008,08,22,01,00,11.10
2008,08,22,01,01,11.10
2008,08,22,01,02,11.10
2008,08,22,01,03,11.10
2008,08,22,01,04,11.10
2008,08,22,01,05,10.90
2008,08,22,01,06,10.90
2008,08,22,01,07,10.90
2008,08,22,01,08,10.90
2008,08,22,01,09,10.90
2008,08,22,01,10,10.90
2008,08,22,01,11,10.90
2008,08,22,01,12,10.90
2008,08,22,01,13,10.90
2008,08,22,01,14,10.90
2008,08,22,01,15,10.90
2008,08,22,01,16,10.90
2008,08,22,01,17,10.90
2008,08,22,01,18,10.90
2008,08,22,01,19,10.90
2008,08,22,01,20,10.90
2008,08,22,01,21,10.90
2008,08,22,01,22,10.90
2008,08,22,01,23,10.90
2008,08,22,01,24,10.90
2008,08,22,01,25,10.90
2008,08,22,01,26,10.90
2008,08,22,01,27,10.90
2008,08,22,01,28,10.90
2008,08,22,01,29,10.90
2008,08,22,01,30,10.90
2008,08,22,01,31,10.90
2008,08,22,01,32,10.90
2008,08,22,01,33,10.90
2008,08,22,01,34,10.90
2008,08,22,01,35,10.90
2008,08,22,01,36,11.00
2008,08,22,01,37,11.00
2008,08,22,01,38,11.00
2008,08,22,01,39,11.00
2008,08,22,01,40,11.00
2008,08,22,01,41,11.00
2008,08,22,01,42,11.00
2008,08,22,01,43,11.00
2008,08,22,01,44,11.00
2008,08,22,01,45,11.00
2008,08,22,01,46,11.00
2008,08,22,01,47,11.00
2008,08,22,01,48,11.00
2008,08,22,01,49,11.00
2008,08,22,01,50,11.00
2008,08,22,01,51,11.00
2008,08,22,01,52,11.00
2008,08,22,01,53,11.00
2008,08,22,01,54,10.90
2008,08,22,01,55,10.90
2008,08,22,01,56,10.90
2008,08,22,01,57,10.90
2008,08,22,01,58,10.90
2008,08,22,01,59,10.90
2008,08,22,02,00,10.90
2008,08,22,02,01,10.90
2008,08,22,02,02,10.90
2008,08,22,02,03,10.90
2008,08,22,02,04,10.90
2008,08,22,02,05,10.90
2008,08,22,02,06,10.90
2008,08,22,02,07,10.90
2008,08,22,02,08,10.90
2008,08,22,02,09,11.00
2008,08,22,02,10,11.00
2008,08,22,02,11,11.00
2008,08,22,02,12,11.00
2008,08,22,02,13,11.00
2008,08,22,02,14,11.00
2008,08,22,02,15,11.00
2008,08,22,02,16,11.00
2008,08,22,02,17,11.00
2008,08,22,02,18,11.00
2008,08,22,02,19,11.00
2008,08,22,02,20,11.00
2008,08,22,02,21,11.00
2008,08,22,02,22,11.00
2008,08,22,02,23,11.00
2008,08,22,02,24,11.00
2008,08,22,02,26,11.00
2008,08,22,02,27,11.10
2008,08,22,02,28,11.10
2008,08,22,02,29,11.10
2008,08,22,02,30,11.10
2008,08,22,02,31,11.10
2008,08,22,02,32,11.10
2008,08,22,02,33,11.10
2008,08,22,02,34,11.10
2008,08,22,02,35,11.10
2008,08,22,02,36,11.10
2008,08,22,02,37,11.10
2008,08,22,02,38,11.10
2008,08,22,02,39,11.10
2008,08,22,02,40,11.10
2008,08,22,02,41,11.10
2008,08,22,02,42,11.30
2008,08,22,02,43,11.30
2008,08,22,02,44,11.30
2008,08,22,02,45,11.30
2008,08,22,02,46,11.30
2008,08,22,02,47,11.30
2008,08,22,02,48,11.30
2008,08,22,02,49,11.30
2008,08,22,02,50,11.30
2008,08,22,02,51,11.30
2008,08,22,02,53,11.30
2008,08,22,02,54,11.30
2008,08,22,02,55,11.30
2008,08,22,02,56,11.30
2008,08,22,02,57,11.30
2008,08,22,02,58,11.30
2008,08,22,03,01,11.30
2008,08,22,03,02,11.30
2008,08,22,03,03,11.30
2008,08,22,03,04,11.30
2008,08,22,03,05,11.30
2008,08,22,03,06,11.30
2008,08,22,03,07,11.30
2008,08,22,03,08,11.30
2008,08,22,03,09,11.30
2008,08,22,03,10,11.30
2008,08,22,03,11,11.30
2008,08,22,03,12,11.30
2008,08,22,03,13,11.30
2008,08,22,03,15,11.30
2008,08,22,03,16,11.30
2008,08,22,03,17,11.30
2008,08,22,03,18,11.30
2008,08,22,03,19,11.30
2008,08,22,03,20,11.30
2008,08,22,03,21,11.30
2008,08,22,03,22,11.30
2008,08,22,03,23,11.30
2008,08,22,03,24,11.30
2008,08,22,03,25,11.30
2008,08,22,03,26,11.30
2008,08,22,03,27,11.30
2008,08,22,03,28,11.30
2008,08,22,03,29,11.30
2008,08,22,03,30,11.20
2008,08,22,03,31,11.20
2008,08,22,03,32,11.20
2008,08,22,03,33,11.20
2008,08,22,03,34,11.20
2008,08,22,03,35,11.20
2008,08,22,03,36,11.20
2008,08,22,03,37,11.20
2008,08,22,03,38,11.20
2008,08,22,03,39,11.20
2008,08,22,03,40,11.20
2008,08,22,03,41,11.20
2008,08,22,03,42,11.20
2008,08,22,03,43,11.20
2008,08,22,03,44,11.20
2008,08,22,03,45,11.50
2008,08,22,03,46,11.50
2008,08,22,03,47,11.50
2008,08,22,03,48,11.50
2008,08,22,03,49,11.50
2008,08,22,03,50,11.50
2008,08,22,03,51,11.50
2008,08,22,03,52,11.50
2008,08,22,03,53,11.50
2008,08,22,03,54,11.50
2008,08,22,03,55,11.50
2008,08,22,03,56,11.50
2008,08,22,03,57,11.50
2008,08,22,03,58,11.50
2008,08,22,03,59,11.50
2008,08,22,04,00,11.60
2008,08,22,04,01,11.60
2008,08,22,04,02,11.60
2008,08,22,04,03,11.60
2008,08,22,04,04,11.60
2008,08,22,04,05,11.60
2008,08,22,04,06,11.60
2008,08,22,04,07,11.60
2008,08,22,04,08,11.60
2008,08,22,04,09,11.60
2008,08,22,04,10,11.60
2008,08,22,04,11,11.60
2008,08,22,04,12,11.60
2008,08,22,04,13,11.60
2008,08,22,04,14,11.60
2008,08,22,04,15,11.60
2008,08,22,04,16,11.60
2008,08,22,04,17,11.60
2008,08,22,04,18,11.60
2008,08,22,04,19,11.60
2008,08,22,04,20,11.60
2008,08,22,04,21,11.60
2008,08,22,04,22,11.60
2008,08,22,04,23,11.60
2008,08,22,04,24,11.60
2008,08,22,04,25,11.60
2008,08,22,04,26,11.60
2008,08,22,04,27,11.60
2008,08,22,04,28,11.60
2008,08,22,04,29,11.60
2008,08,22,04,30,11.80
2008,08,22,04,31,11.80
2008,08,22,04,32,11.80
2008,08,22,04,33,11.80
2008,08,22,04,34,11.80
2008,08,22,04,35,11.80
2008,08,22,04,36,11.80
2008,08,22,04,37,11.80
2008,08,22,04,38,11.80
2008,08,22,04,39,11.80
2008,08,22,04,40,11.80
2008,08,22,04,41,11.80
2008,08,22,04,42,11.80
2008,08,22,04,43,11.80
2008,08,22,04,44,11.80
2008,08,22,04,45,12.10
2008,08,22,04,46,12.10
2008,08,22,04,47,12.10
2008,08,22,04,48,12.10
2008,08,22,04,49,12.10
2008,08,22,04,50,12.10
2008,08,22,04,51,12.10
2008,08,22,04,52,12.10
2008,08,22,04,53,12.10
2008,08,22,04,54,12.10
2008,08,22,04,55,12.10
2008,08,22,04,56,12.10
2008,08,22,04,57,12.10
2008,08,22,04,58,12.10
2008,08,22,04,59,12.10
2008,08,22,05,00,11.70
2008,08,22,05,01,11.70
2008,08,22,05,02,11.70
2008,08,22,05,03,11.70
2008,08,22,05,04,11.70
2008,08,22,05,05,11.70
2008,08,22,05,06,11.70
2008,08,22,05,07,11.70
2008,08,22,05,08,11.70
2008,08,22,05,09,11.70
2008,08,22,05,10,11.70
2008,08,22,05,11,11.70
2008,08,22,05,12,11.70
2008,08,22,05,13,11.70
2008,08,22,05,14,11.70
2008,08,22,05,15,11.20
2008,08,22,05,16,11.20
2008,08,22,05,17,11.20
2008,08,22,05,18,11.20
2008,08,22,05,19,11.20
2008,08,22,05,20,11.20
2008,08,22,05,21,11.20
2008,08,22,05,22,11.20
2008,08,22,05,23,11.20
2008,08,22,05,24,11.20
2008,08,22,05,25,11.20
2008,08,22,05,26,11.20
2008,08,22,05,27,11.20
2008,08,22,05,28,11.20
2008,08,22,05,29,11.20
2008,08,22,05,30,10.90
2008,08,22,05,31,10.90
2008,08,22,05,32,10.90
2008,08,22,05,33,10.90
2008,08,22,05,34,10.90
2008,08,22,05,35,10.90
2008,08,22,05,36,10.90
2008,08,22,05,37,10.90
2008,08,22,05,38,10.90
2008,08,22,05,39,10.90
2008,08,22,05,40,10.90
2008,08,22,05,41,10.90
2008,08,22,05,42,10.90
2008,08,22,05,43,10.90
2008,08,22,05,44,10.90
2008,08,22,05,45,10.90
2008,08,22,05,46,10.90
2008,08,22,05,47,10.90
2008,08,22,05,48,11.00
2008,08,22,05,49,11.00
2008,08,22,05,50,11.00
2008,08,22,05,51,11.00
2008,08,22,05,52,11.00
2008,08,22,05,53,11.00
2008,08,22,05,54,11.00
2008,08,22,05,55,11.00
2008,08,22,05,56,11.00
2008,08,22,05,57,11.00
2008,08,22,05,58,11.00
2008,08,22,05,59,11.00
2008,08,22,06,00,11.00
2008,08,22,06,01,11.00
2008,08,22,06,02,11.00
2008,08,22,06,03,11.10
2008,08,22,06,04,11.10
2008,08,22,06,05,11.10
2008,08,22,06,06,11.10
2008,08,22,06,07,11.10
2008,08,22,06,08,11.10
2008,08,22,06,09,11.10
2008,08,22,06,10,11.10
2008,08,22,06,11,11.10
2008,08,22,06,12,11.10
2008,08,22,06,13,11.10
2008,08,22,06,14,11.10
2008,08,22,06,15,11.10
2008,08,22,06,16,11.10
2008,08,22,06,17,11.10
2008,08,22,06,18,11.10
2008,08,22,06,19,11.10
2008,08,22,06,20,11.10
2008,08,22,06,21,11.00
2008,08,22,06,22,11.00
2008,08,22,06,23,11.00
2008,08,22,06,24,11.00
2008,08,22,06,25,11.00
